Location: Boda
(47.1872°N, 9.5454°E)
Time: 18:36:09
(UTC+00:00)

Cosmos 2233 Rocket - Pass Details

Date: 14 May 2021
Orbit: 952 x 991 km, 82.9° (Epoch: 16 June)

Event Time Altitude Azimuth Distance (km) Brightness Sun altitude
Rises 01:26:55 0° 352° (N) 3,675 7.8 -18.1°
Reaches altitude 10° 01:29:28 10° 354° (N) 2,719 7.1 -17.9°
Maximum altitude 01:35:40 73° 79° (E) 1,006 4.2 -17.3°
Drops below altitude 10° 01:41:48 10° 165° (SSE) 2,678 5.9 -16.7°
Enters shadow 01:41:57 - 165° (SSE) 2,734 6.0 -16.7°
